STARLINK-6169, 56889

Orbit data source: Space-Track

STARLINK-6169, 56889 is a payload satellite owned by SpaceX/Seattle (US) in LEO that was launched on Mon, 12 Jun 2023 UTC via an FALCON 9 launch vehicle from the Air Force Eastern Test Range (AFETR). Payload-class satellites include a variety of spacecraft equipped with specific instruments for various scientific and technological missions. These include communications satellites like Starlink; space stations such as the ISS; scientific satellites like the Hubble; Earth observation satellites from companies like Planet Labs, Umbra, and HawkEye 360; GPS; miniature CubeSats for education and research; and military/defense satellites.

Loading next visibility...
Identifier
56889, 2023-083P
Orbit
LEO
Country
Flag of USUS
Related business
Manufacturer
SpaceX/Seattle
Mission
Operational Commercial Communications
Bus & Motor
STARLINK, Unknown motor
Mass
305 kg wet, ~290 kg dry
Launch date (UTC)
2023-06-12 (3 years ago)
Launch vehicle
FALCON 9
Launch site
Air Force Eastern Test Range (AFETR)
Object type
Payload
Rocket body
Debris
Shape & HBR
Box + 1 Pan, 10.1 m
Radar Cross Section
11.087 m², Large (>1 m²)

Expand to show TLE details & history
Last TLE update: 2 days ago

TLE from 2 days ago
0 STARLINK-6169
1 56889U 23083P   26171.14919947  .00000907  00000-0  42480-4 0  9991
2 56889  43.0024 226.2616 0001950 273.2474  86.8154 15.27574002167290
Epoch: 2026-06-20T03:34Z
TLE epoch observation values (Epoch: 2026-06-20T03:34:50.834Z)
Latitude
-0.00004°
Longitude
-95.81823°
Altitude
482.769 km
Speed
7.626 km/s
True Right ascension
15h 05m 02s
True Declination
0° 00' 00"
Sunlit
Object was in full shadow at epoch
Visualization orbit readout
Latitude
Unknown
Longitude
Unknown
Altitude
Unknown
Speed
Unknown
Apparent Right ascension
Unknown
Apparent Declination
Unknown
Sunlit
N/A
Visualization observer readout
Local Sidereal Time
21:27:46
Azimuth
Unknown
Elevation
Unknown
Doppler factor
Unknown
Orbital elements
Apogee altitude
486.35 km
Perigee altitude
483.674 km
Semi-major axis
6,863.149 km
Eccentricity
0.0002
Inclination
43.0024°
RAAN
226.2616°
Arg. of periapsis
273.2474°
True anomaly
86.83771°
Mean anomaly
86.8154°
Eccentric anomaly
86.82656°
Mean motion
3.81732 °/min
Orbital period
94.31 mins
BSTAR
0.00004248
Loading maneuver chart data...
Computing Atmospheric mass density...
Loading historical data...
Loading historical data...
Loading historical data...
Loading historical data...
Loading historical data...
Loading historical data...
Loading historical data...

Documentation

Showing up to 5 results
|